Location: Moscow
(55.7500°N, 37.5830°E)
Time: 16:09:21
(UTC+03:00)

A-11 Canister half - Pass Details

Date: 05 December 2021
Orbit: 1516 x 1684 km, 47.2° (Epoch: 24 January)

Event Time Altitude Azimuth Distance (km) Brightness Sun altitude
Rises 07:54:12 0° 227° (SW) 4,769 11.4 -6.2°
Reaches altitude 10° 07:57:28 10° 221° (SW) 3,809 11.0 -5.8°
Maximum altitude 08:06:18 41° 155° (SSE) 2,218 10.5 -4.7°
Drops below altitude 10° 08:15:25 10° 90° (E) 3,927 12.1 -3.7°
Sets 08:18:50 0° 84° (E) 4,929 12.5 -3.3°
